Regional Weather Roundup
Issued by NWS Upton, NY

Current Version | Previous Version | Graphics & Text | Print | Product List | Glossary On
Versions: 1 2 3 4 5 6 7 8 9 10 11 12 13 14 15 16 17 18 19 20 21 22 23 24 25 26 27 28 29 30 31 32 33 34 35 36 37 38 39 40 41 42 43 44 45 46 47 48 49 50
000
ASUS41 KOKX 060808
RWROKX

REGIONAL WEATHER ROUNDUP
NATIONAL WEATHER SERVICE NEW YORK NY
400 AM EDT WED MAY 06 2015

NOTE: "FAIR" INDICATES FEW OR NO CLOUDS BELOW 12,000 FEET WITH NO
SIGNIFICANT WEATHER AND/OR OBSTRUCTIONS TO VISIBILITY.

NYZ071-072-176-178-NJZ106-104-060900-
NEW YORK CITY METRO AREA


CITY           SKY/WX    TMP DP  RH WIND       PRES   REMARKS
CENTRAL PARK   CLOUDY    70  36  28 VRB7      30.22S
LAGUARDIA APRT CLOUDY    68  39  34 N6        30.19S
KENNEDY INTL   CLOUDY    68  45  43 N7        30.20R
NEWARK/LIBERTY LGT RAIN  68  45  43 NE9       30.19S
BRNX BOT. GARD   N/A     66  37  34 NW6       30.21S
TETERBORO      CLOUDY    69  40  34 N6        30.19R
$$

NYZ177-179-078>081-060900-
LONG ISLAND NEW YORK

CITY           SKY/WX    TMP DP  RH WIND       PRES   REMARKS
FARMINGDALE    MOCLDY    63  51  65 N7        30.19R
ISLIP          MOCLDY    60  51  72 N6        30.18R
SHIRLEY        CLOUDY    57  50  77 N3        30.19S
WESTHAMPTON    CLOUDY    59  52  77 CALM      30.20R
MONTAUK POINT    N/A     52  46  80 N3        30.20S
$$

NYZ052-065-067-060900-
HUDSON VALLEY

CITY           SKY/WX    TMP DP  RH WIND       PRES   REMARKS
WHITE PLAINS   CLOUDY    66  35  31 N8        30.20R
NEWBURGH       NOT AVBL
MONTGOMERY     CLOUDY    60  53  77 CALM      30.23R
POUGHKEEPSIE   CLOUDY    63  41  44 CALM      30.22S
ALBANY         CLOUDY    57  38  48 N7        30.27R
$$

NJZ001-105-106-008-010-013-015-019>022-104-060900-
NEW JERSEY

CITY           SKY/WX    TMP DP  RH WIND       PRES   REMARKS
NEWARK/LIBERTY LGT RAIN  68  45  43 NE9       30.19S
TETERBORO      CLOUDY    69  40  34 N6        30.19R
CALDWELL       CLOUDY    65  47  52 CALM      30.21S
MORRISTOWN     CLOUDY    64  54  68 CALM      30.21R
SOMERVILLE     CLOUDY    63  57  81 CALM      30.19R
SUSSEX         CLOUDY    61  49  64 CALM      30.23S
ANDOVER          N/A     61  53  75 CALM      30.22S
TRENTON        MOCLDY    68  53  58 N6        30.19R
MILLVILLE      MOCLDY    63  62  97 W3        30.20S FOG
ATLANTIC CITY  CLOUDY    66  63  90 W3        30.19S
WRIGHTSTOWN    MOCLDY    66  62  85 N2        30.16S
TOMS RIVER     MOCLDY    64  61  88 CALM      30.19R
BELMAR         MOCLDY    66  54  63 N7        30.19S
$$

PAZ047>061-062-071-060900-
EASTERN PENNSYLVANIA

CITY           SKY/WX    TMP DP  RH WIND       PRES   REMARKS
PHILADELPHIA   PTCLDY    67  62  84 SW5       30.20R
ALLENTOWN      CLOUDY    67  47  48 NE5       30.21S
SCRANTON       LGT RAIN  59  52  77 NW5       30.25R
$$

CTZ002-004>006-009-010-012-RIZ004-006-007-MAZ004-011-015-060900-
SOUTHERN NEW ENGLAND
 IN CT

CITY           SKY/WX    TMP DP  RH WIND       PRES   REMARKS
BRADLEY INTL   CLOUDY    58  39  49 N8        30.22R
HARTFORD       CLOUDY    61  38  42 N10       30.21R
DANBURY        CLOUDY    64  35  34 N5        30.22S
WTRBRY/OXFORD    N/A     63  37  39 N10       30.24R
BRIDGEPORT     CLOUDY    56  51  84 NE3       30.20R
MERIDEN        CLOUDY    65  40  39 N7        30.21R
NEW HAVEN      CLOUDY    53  49  86 S6        30.20R
CHESTER        FAIR      63  52  67 N6        30.21R
GROTON         CLOUDY    55  50  83 CALM      30.19R
WILLIMANTIC    CLOUDY    58  51  78 N5        30.22R

 IN RI

CITY           SKY/WX    TMP DP  RH WIND       PRES   REMARKS
PROVIDENCE     CLOUDY    56  50  80 N5        30.22R
BLOCK ISLAND   CLOUDY    50  46  87 NE7       30.20R
WESTERLY       CLOUDY    57  51  80 NE5       30.20R

 IN MA

CITY           SKY/WX    TMP DP  RH WIND       PRES   REMARKS
BOSTON         MOCLDY    56  48  74 N6        30.23S
WORCESTER      CLOUDY    60  29  30 N13       30.25S
WESTFIELD      CLOUDY    55  40  56 N7        30.24R
PROVINCETOWN   MOCLDY    48  46  93 NE6       30.23S
NANTUCKET      MOCLDY    49  46  90 CALM      30.20R
$$

ANZ330-335-338-340-345-350-353-355-060900-
COASTAL MARINE OBSERVATIONS


STATION/POSITION TIME  SKY/WX   TEMP    WIND        PRES    VSBY  WAVE
                                AIR SEA DIR/SP/G                  HT/PER
                 (UTC)          (F)     (DEG/KT/KT) (MB)    (MI)  (FT/S)
NY HARB ENTRANCE 0750            58 52  330/  6/  8 1021.8          3/ 6
4S FIRE IS       0703               52                N/A           3/ 5
20S FIRE ISLAND  0750            54 49  340/  4/  6 1021.9          3/ 6
GREAT SOUTH BAY  0730            60 61  340/  2/  2   N/A
23SW MTP         0750            50 49  180/  2/  4 1022.0          3/ 7
HUDSON CANYON    NOT AVBL
KINGS POINT      0700            62 47   CALM  /  3 1021.7
EASTERN LI SOUND 0700            49     120/  2/  4   N/A
ROBBINS REEF     0700            69     360/ 12/ 14 1021.0
$$


>>>>>>>>>>>>>>>>>>>>>>>>>>>> KEY <<<<<<<<<<<<<<<<<<<<<<<<<<<
>                                                          <
>     SKY/WX - SKY CONDITION/PRESENT WEATHER               <
>     TMP    - TEMPERATURE IN FAHRENHEIT                   <
>     DP     - DEWPOINT IN FAHRENHEIT                      <
>     RH     - RELATIVE HUMIDITY IN PERCENT                <
>     WIND   - DIRECTION AND SPEED IN MPH                  <
>     PRES   - MEAN SEA LEVEL PRESSURE IN INCHES OF HG     <
>     WCI    - WIND CHILL INDEX                            <
>     VSB    - VISIBILITY IN MILES                         <
>     HX     - HEAT INDEX                                  <
>     TC     - TEMPERATURE IN CELSIUS                      <
>     VRB    - VARIABLE WIND DIRECTION                     <
>                                                          <
>>>>>>>>>>>>>>>>>>>>>>>>>>>> KEY <<<<<<<<<<<<<<<<<<<<<<<<<<<





USA.gov is the U.S. government's official web portal to all federal, state and local government web resources and services.